Airfield :
LOGIN :

Register | Disclaimer

   EN    FR    IT 

 










Legend :    VFR   Marginal VFR   IFR   Intensive IFR   Very Intensive IFR
Visi :
Ceiling :
>= 8 km
>= 3000ft
5 to 8 km
1000 to 3000 ft
1500m to 5 km
500 to 1000 ft
800 to 1500m
200 to 500 ft
< 800m
< 200 ft
Symbols :   Thunderstorms  Fog  Heavy snow  Heavy precipitations  Wind > 20 kt
SIGMETs :     Misc.  Thunderstorms  Icing  Turbulence  Mountain Waves  Volcanic Ashes







- Airport Elevation : 56 ft


LPOV - Ovar Air Base

CURRENT METAR :
  • 220000Z VRB02KT 9999 FEW015 SCT018 15/14 Q1016

EXPIRED METARs :
  • 212300Z VRB02KT 9999 FEW015 SCT018 16/14 Q1017
  • 212200Z VRB01KT CAVOK 16/15 Q1017

TAF TAF LPOV
Valid from the 22 at 00:00 until the 23 at 00:00 UTC


212304Z 2200/2224 VRB02KT 9999 FEW012 SCT015
PROB30 2200/2210 SCT007 BKN014
BECMG 2209/2211 34010KT FEW030
BECMG 2213/2215 34015KT
TEMPO 2216/2220 35015G25KT
BECMG 2221/2223 25010KT
No reported NOTAMs for that airfield.



MET'MAP, your aeronautical weather chart ! - Copyright ORBIFLY December 2007 - Disclaimer

ORBIFLY MET'MAP TEAM :

Programming & Development : Alexandra Zaïnal
Concept & Development : Baudouin d'Aumeries
Co-Development & Prog : Marc-Olivier Méhu
Technical & hardware support : Manuel Goepfert

Contact : metmap@orbifly.com




SOURCES & CREDITS :

   NOAA